This demonstration page uses our WeatherBlox Daily Observations layout. Learn more.

Left ArrowRight Arrow

41.12389, -100.76542

Hourly Observations for July 2, 2016

Temp ( °F °C ) Dew Point ( °F °C ) Humidity (%) Winds ( mph kmh ) Pressure ( in mb ) Visibility ( mi km ) Precip ( " mm )
12:23 am 00:23 Cloudy 62 16.7 59 15 90 90 ESE 13 20 30.00 1016 10 16 0.00 0.00
12:53 am 00:53 Cloudy with Light Rain 61 16.1 58 14.4 90 90 ESE 10 17 30.00 1016 8 13 0.00 0.03
1:53 am 01:53 Cloudy 59 15 56 13.3 90 90 E 14 22 29.97 1015 10 16 0.08 2.03
2:53 am 02:53 Cloudy 58 14.4 55 12.8 90 90 E 15 24 29.95 1014 10 16 0.00 0.00
3:53 am 03:53 Cloudy 57 13.9 54 12.2 90 90 E 13 20 29.95 1014 10 16 0.00 0.00
4:53 am 04:53 Cloudy 57 13.9 54 12.2 90 90 ESE 12 19 29.94 1014 10 16 0.00 0.00
5:36 am 05:36 Mostly Cloudy 56 13.3 55 12.8 97 97 E 12 19 29.94 1014 10 16 0.00 0.00
5:53 am 05:53 Cloudy 57 13.9 55 12.8 93 93 E 12 19 29.93 1014 10 16 0.00 0.00
6:53 am 06:53 Cloudy 57 13.9 55 12.8 93 93 ENE 7 11 29.96 1015 9 14 0.00 0.00
7:53 am 07:53 Cloudy 58 14.4 56 13.3 93 93 E 10 17 29.95 1014 8 13 0.00 0.00
8:15 am 08:15 Cloudy with Mist and Fog 57 14 57 14 100 100 E 8 13 29.94 1014 4 6 0.00 0.00
8:53 am 08:53 Cloudy with Mist and Fog 58 14.4 57 13.9 97 97 E 7 11 29.97 1015 4 6 0.00 0.00
9:53 am 09:53 Cloudy with Mist and Fog 60 15.6 58 14.4 93 93 ENE 8 13 29.97 1015 5 8 0.00 0.00
10:53 am 10:53 Cloudy with Mist and Fog 60 15.6 58 14.4 93 93 ENE 8 13 29.97 1015 6 10 0.00 0.00
11:53 am 11:53 Cloudy 61 16.1 59 15 93 93 NE 7 11 29.97 1015 9 14 0.00 0.00
12:16 pm 12:16 Cloudy 61 16.1 59 15 93 93 ENE 8 13 29.97 1015 10 16 0.00 0.00
12:53 pm 12:53 Cloudy 61 16.1 59 15 93 93 ENE 7 11 29.98 1015 9 14 0.00 0.00
1:53 pm 13:53 Cloudy 62 16.7 60 15.6 93 93 ENE 6 9 29.97 1015 7 11 0.00 0.00
2:53 pm 14:53 Cloudy 63 17.2 61 16.1 93 93 ENE 6 9 29.97 1015 8 13 0.00 0.00
3:53 pm 15:53 Cloudy 65 18.3 61 16.1 87 87 E 5 7 29.98 1015 9 14 0.00 0.00
4:53 pm 16:53 Cloudy 64 17.8 61 16.1 90 90 NNE 7 11 29.96 1015 10 16 0.00 0.00
5:53 pm 17:53 Cloudy 64 17.8 61 16.1 90 90 NE 8 13 29.96 1015 10 16 0.00 0.00
6:53 pm 18:53 Cloudy 63 17.2 61 16.1 93 93 ENE 9 15 29.96 1015 10 16 0.00 0.00
7:53 pm 19:53 Cloudy 63 17.2 61 16.1 93 93 ENE 9 15 29.97 1015 10 16 0.00 0.00
8:41 pm 20:41 Cloudy 62 16.7 60 15.6 93 93 ENE 9 15 29.91 1013 10 16 0.00 0.00
8:53 pm 20:53 Cloudy with Mist and Fog 61 16.1 60 15.6 97 97 ENE 10 17 29.97 1015 6 10 0.00 0.00
9:53 pm 21:53 Cloudy 61 16.1 60 15.6 97 97 E 6 9 29.97 1015 10 16 0.00 0.00
10:20 pm 22:20 Cloudy 61 16 61 16 100 100 E 7 11 29.97 1015 9 14 0.00 0.00
10:53 pm 22:53 Cloudy 61 16.1 60 15.6 97 97 E 7 11 29.98 1015 9 14 0.00 0.00
11:53 pm 23:53 Cloudy 61 16.1 60 15.6 97 97 E 6 9 29.98 1015 9 14 0.00 0.00

Powered by AerisWeather